[Date Prev][Date Next][Thread Prev][Thread Next] - [Date Index][Thread Index][Author Index]

2 Line ISS Keps 2-14



ISS
1 25544U 98067A   04045.31135417  .00019921  00000-0  18736-3 0  1888
2 25544  51.6278 236.4162 0007008 162.9778 200.4815 15.67096124298886

----
Via the sarex mailing list at AMSAT.ORG courtesy of AMSAT-NA.
To unsubscribe, send "unsubscribe sarex" to Majordomo@amsat.org



AMSAT Top AMSAT Home